Location: Proctor
(47.8934°N, 114.3048°W)
Time: 10:47:31
(UTC+00:00)

Transit 2A - Visible Passes

Search period start: 21 June 2024 00:00
Search period end: 01 July 2024 00:00
Orbit: 592 x 959 km, 66.7° (Epoch: 20 June)

Date Brightness Start Highest point End Pass type
(mag) Time Alt. Az. Time Alt. Az. Time Alt. Az.
21 Jun 8.8 04:26:59 10° NNW 04:30:02 14° NNE 04:33:10 10° NE visible
21 Jun 7.8 06:09:41 10° NNW 06:15:06 33° NE 06:20:43 10° ESE visible
21 Jun 6.4 07:52:38 10° NW 07:58:45 69° WSW 08:02:11 28° SSE visible
21 Jun 8.2 09:38:01 10° WNW 09:40:58 14° WSW 09:42:34 13° WSW visible
22 Jun 8.1 05:34:32 10° NNW 05:39:35 27° NE 05:44:48 10° E visible
22 Jun 6.4 07:17:20 10° NW 07:23:32 89° NE 07:27:22 26° SSE visible
22 Jun 7.8 09:01:43 10° WNW 09:06:02 20° WSW 09:07:44 18° SW visible
23 Jun 8.3 04:59:24 10° NNW 05:03:59 22° NNE 05:08:45 10° E visible
23 Jun 6.6 06:42:07 10° NNW 06:48:15 68° NE 06:52:36 21° SE visible
23 Jun 7.5 08:25:55 10° NW 08:31:03 28° WSW 08:32:59 23° SW visible
24 Jun 8.5 04:24:15 10° NNW 04:28:21 19° NNE 04:32:36 10° ENE visible
24 Jun 7.0 06:06:55 10° NNW 06:12:54 52° NE 06:17:55 16° ESE visible
24 Jun 7.1 07:50:20 10° NW 07:56:00 38° WSW 07:58:18 29° SSW visible
25 Jun 7.4 05:31:45 10° NNW 05:37:29 41° NE 05:43:17 11° ESE visible
25 Jun 6.8 07:14:53 10° NW 07:20:53 52° WSW 07:23:40 31° S visible
26 Jun 7.7 04:56:35 10° NNW 05:02:01 32° NE 05:07:38 10° ESE visible
26 Jun 6.5 06:39:32 10° NW 06:45:42 71° WSW 06:49:06 29° SSE visible
26 Jun 8.3 08:24:50 10° WNW 08:27:55 14° WSW 08:29:29 13° WSW visible
27 Jun 8.0 04:21:26 10° NNW 04:26:29 26° NE 04:31:42 10° E visible
27 Jun 6.4 06:04:15 10° NW 06:10:28 88° ENE 06:14:34 24° SE visible
27 Jun 8.0 07:48:35 10° WNW 07:52:59 20° WSW 07:54:58 18° SW visible
28 Jun 6.6 05:29:00 10° NNW 05:35:10 67° NE 05:40:05 17° SE visible
28 Jun 7.6 07:12:47 10° NW 07:17:59 28° WSW 07:20:29 22° SW visible
29 Jun 7.0 04:53:47 10° NNW 04:59:48 52° NE 05:05:39 12° ESE visible
29 Jun 7.2 06:37:12 10° NW 06:42:55 39° WSW 06:46:03 24° SSW visible
30 Jun 7.3 04:18:36 10° NNW 04:24:23 40° NE 04:30:19 10° ESE visible
30 Jun 6.9 06:01:46 10° NW 06:07:48 53° WSW 06:11:39 23° S visible
